Wind_Speed
4 6 7 8 10 11 12 14 15 15 15 15 15 15 15 15 15 15 15 16 17 18 18 18 17 17 17 17 17 17 18 18 18 19 19 20 19 20 20 20 20 20 20 20 20 21 21 21 21 21 21 21 21 22 22 22 21 21 21 21 21 21 22 23 24 25 25 25 25 25 25 25 25 25 25 25 25 25 25 25 25 26 26 26 26 26
3 4 6 8 9 11 12 14 15 16 16 17 17 17 17 17 17 17 17 18 19 20 20 20 19 19 18 18 18 18 19 19 19 19 19 19 19 19 19 19 20 20 20 21 21 21 21 21 21 21 21 21 22 22 22 22 21 21 21 21 21 21 22 24 24 25 25 25 25 25 25 25 25 25 25 25 25 25 25 25 25 25 26 26 26 26
2 4 6 8 10 11 13 14 15 16 17 18 18 18 18 19 19 19 20 20 20 21 22 22 22 21 20 20 20 20 20 21 21 20 20 19 18 18 18 19 20 20 20 21 21 21 21 21 21 21 21 21 22 22 22 22 21 21 21 21 21 22 23 24 25 25 25 25 25 25 26 25 25 25 25 25 25 25 25 25 25 25 25 26 26 26
4 6 8 9 11 12 14 15 16 17 18 18 18 19 19 20 21 21 21 22 22 23 23 24 24 23 22 22 21 22 22 22 22 22 21 20 19 18 18 18 19 20 20 21 21 21 21 22 21 21 21 21 22 22 22 22 21 21 21 21 21 22 23 24 25 25 25 25 26 26 26 25 25 25 25 25 25 25 25 25 25 25 25 25 25 25
7 9 10 12 13 13 14 16 17 18 18 18 19 20 21 22 22 22 22 22 23 24 25 25 25 25 24 23 23 23 23 24 24 23 22 21 20 19 18 18 19 19 20 21 21 21 22 22 22 22 21 22 22 22 22 22 21 21 21 21 22 22 23 24 25 25 25 25 26 26 25 25 25 25 25 25 25 25 25 25 25 25 25 25 25 25
9 10 11 13 13 14 15 17 18 19 20 20 20 21 22 22 23 24 24 25 25 26 26 27 27 26 25 24 24 25 25 25 26 25 24 23 21 20 19 19 19 20 20 20 21 21 22 22 22 22 22 22 22 22 22 22 21 21 21 21 22 23 24 24 25 25 25 25 25 25 25 25 25 25 25 25 25 25 25 25 25 25 25 25 25 25
9 10 12 13 14 14 15 17 19 20 22 22 22 22 22 23 24 25 26 26 27 28 28 27 27 26 26 25 25 26 26 27 28 27 26 25 23 22 21 21 21 21 21 21 21 21 22 22 22 22 22 22 22 22 22 22 21 21 21 22 22 23 24 24 25 25 25 25 25 25 25 25 25 25 25 25 25 25 24 25 25 25 25 25 25 25
10 11 13 14 15 16 16 17 19 21 22 23 23 24 26 26 27 27 27 27 28 29 29 29 28 28 27 27 27 27 28 28 29 29 28 27 25 24 23 22 22 22 22 22 22 22 22 22 22 22 22 22 23 22 22 22 21 21 21 22 23 23 24 24 25 25 25 25 25 25 25 25 25 25 25 25 25 24 24 24 24 25 25 25 25 25
11 13 15 16 17 17 17 17 19 21 22 22 21 22 25 28 29 30 29 29 29 30 30 31 31 30 29 28 27 28 29 28 28 28 28 27 26 25 24 24 24 24 23 23 23 22 22 22 22 22 22 23 23 22 22 21 21 21 22 22 23 24 24 24 25 25 25 25 25 25 25 25 25 25 25 25 24 24 24 24 24 25 25 25 25 24
13 15 16 16 17 17 17 17 19 20 21 21 19 19 21 24 27 29 29 31 31 31 30 31 32 32 31 29 29 29 30 30 29 28 28 27 26 25 25 24 25 25 25 25 24 23 23 22 22 22 23 23 23 22 22 21 21 22 22 23 23 24 24 24 25 25 25 25 25 25 25 25 25 24 25 24 24 24 24 24 24 24 24 24 24 24
14 16 16 17 17 17 17 17 19 20 21 21 20 19 20 22 23 24 25 27 29 31 31 30 30 30 31 30 30 30 31 32 32 31 30 28 27 26 26 26 26 26 26 26 25 24 24 23 23 23 24 24 24 23 22 21 21 22 22 23 24 24 24 24 25 25 25 25 25 25 25 25 24 24 24 24 24 24 24 24 24 24 24 24 23 23
15 16 17 16 17 18 19 19 20 20 21 21 20 19 19 21 22 21 21 23 25 28 29 29 29 28 28 28 28 30 31 32 33 33 33 31 29 28 29 29 29 28 28 28 27 27 25 24 24 25 26 26 24 23 22 21 22 22 23 23 24 24 24 24 25 25 25 25 25 25 25 25 24 24 24 24 24 24 23 24 24 24 23 23 23 23
15 16 16 17 18 19 20 20 20 20 20 19 18 17 18 20 21 21 20 20 22 24 26 27 28 28 26 24 25 27 30 32 33 33 32 31 30 30 31 31 31 31 30 30 30 29 27 26 26 27 28 27 25 23 22 21 22 22 23 23 24 24 24 24 25 25 25 25 25 25 25 24 24 24 24 24 24 23 23 23 23 23 23 23 22 23
16 17 18 18 19 19 19 19 18 17 17 17 16 16 16 18 20 21 20 20 21 23 24 24 26 26 25 22 22 24 28 31 33 32 32 31 30 30 30 31 31 31 31 30 30 29 27 27 28 29 30 28 26 24 22 22 22 23 23 23 24 24 24 24 25 25 25 25 25 25 24 24 24 24 24 24 23 23 23 23 23 23 23 22 22 23
17 17 17 16 16 16 17 17 16 15 15 15 15 16 17 19 20 20 20 20 22 23 23 23 23 23 21 20 21 24 27 30 31 31 32 31 30 29 30 30 31 31 30 29 29 29 28 28 29 30 31 29 26 24 23 22 23 23 23 23 24 24 24 25 25 25 25 25 25 25 24 24 24 24 24 23 23 23 23 23 23 22 22 22 22 23
16 16 14 13 13 14 14 14 14 14 15 15 16 17 17 18 19 19 19 20 21 22 22 22 22 21 20 19 21 24 27 29 29 29 30 31 31 30 29 30 30 30 30 29 29 29 29 29 29 30 31 28 25 23 23 23 23 23 23 23 24 24 25 25 25 25 25 25 25 24 24 24 24 24 24 23 23 23 23 23 22 22 22 22 22 23
14 14 13 12 12 13 14 14 14 14 15 16 16 16 17 18 18 19 19 19 20 20 20 19 17 16 17 21 23 25 28 28 28 27 28 29 30 30 29 29 29 29 29 28 28 28 29 29 30 31 30 27 24 23 23 23 23 23 23 24 24 24 25 25 25 25 25 25 25 24 24 24 24 23 23 23 23 23 23 23 22 22 22 22 22 23
13 13 12 12 11 12 13 14 14 14 16 17 17 17 17 18 18 19 19 19 19 19 19 18 16 14 14 18 22 26 28 28 27 27 27 28 29 29 29 28 27 28 28 28 28 28 28 29 31 31 29 26 24 23 23 23 23 23 24 24 24 25 25 25 25 25 25 25 25 24 24 24 24 23 23 23 23 23 23 23 22 22 21 22 23 23
12 12 12 12 12 12 12 13 14 15 16 16 17 18 18 18 18 18 19 19 19 19 19 18 17 17 17 19 24 27 26 26 26 26 25 26 28 29 28 27 27 27 28 28 28 28 28 30 31 30 28 26 24 23 23 23 23 23 24 24 24 25 25 25 25 25 25 25 25 24 24 24 24 23 23 23 23 23 23 23 22 22 21 22 23 23
11 12 12 13 13 13 12 13 14 15 15 16 17 17 17 18 19 19 19 20 20 20 20 19 18 19 20 23 26 26 25 25 25 24 23 25 27 28 27 26 26 27 28 28 28 28 29 30 31 31 29 26 24 23 23 23 23 23 24 24 25 25 25 25 25 25 25 25 25 24 24 24 24 23 23 23 23 23 23 22 22 22 21 22 23 22
11 11 12 13 13 13 13 14 15 15 15 16 17 17 17 18 18 19 20 21 22 22 21 20 20 21 22 24 26 26 24 23 23 22 21 23 24 25 26 26 26 27 28 28 28 28 29 30 31 31 29 26 24 23 23 23 23 24 24 24 25 25 25 25 25 25 25 25 25 24 24 24 24 23 23 23 23 23 23 23 22 22 21 22 22 22
11 11 12 12 12 13 13 14 14 15 15 16 17 17 17 18 18 19 21 23 23 23 22 22 23 24 24 24 24 24 22 21 21 21 20 20 23 25 26 25 26 26 27 28 29 29 30 30 30 30 28 25 23 23 23 23 23 24 24 25 25 25 25 25 25 25 25 25 25 24 24 24 23 23 23 23 23 23 23 22 22 22 22 22 22 21
11 11 11 11 12 13 13 14 14 14 14 15 15 16 17 18 19 20 22 23 23 23 23 25 25 25 24 23 23 22 22 20 19 19 17 17 20 25 26 26 25 25 26 28 29 30 30 30 30 29 27 25 23 22 22 22 23 24 24 25 25 25 25 25 25 25 25 25 24 24 24 24 24 23 23 23 23 23 22 22 22 21 22 22 22 21
12 12 12 12 12 13 13 13 13 13 13 13 14 16 17 18 19 21 21 22 22 22 23 24 24 24 23 22 21 21 22 21 19 17 15 15 20 24 26 26 25 25 26 27 28 29 29 29 29 28 26 24 23 22 22 22 23 24 24 24 24 25 24 24 24 24 24 24 24 24 24 24 23 23 23 23 23 23 22 22 21 22 22 22 21 20
12 12 12 11 11 11 11 11 11 11 11 12 13 15 17 18 19 20 20 20 20 20 21 21 21 21 21 21 20 20 22 22 19 17 16 16 20 25 26 25 24 25 26 28 28 28 28 28 28 27 25 23 22 22 22 23 23 24 24 24 24 24 24 24 24 24 24 24 24 24 24 23 23 23 23 23 23 23 22 22 22 22 22 22 21 19
11 11 11 10 10 10 11 11 11 11 10 10 11 14 17 19 20 20 19 19 19 18 18 18 18 18 20 20 20 21 24 22 19 16 16 17 20 24 25 24 24 25 27 28 27 27 26 26 26 26 24 22 22 23 24 24 24 24 24 24 24 24 24 24 24 24 24 24 24 24 23 23 23 23 23 24 23 23 22 22 22 22 22 22 20 19
10 11 10 11 11 12 13 13 12 11 10 9 9 11 15 18 19 19 19 18 18 17 16 15 16 17 19 19 20 22 24 21 17 15 17 19 20 22 24 24 24 25 26 27 27 26 25 24 24 23 22 21 22 24 25 24 24 24 23 23 23 23 23 23 23 23 23 23 23 23 23 23 23 23 23 23 23 23 22 22 22 22 22 20 19 18
11 12 13 13 14 14 14 14 13 12 10 10 10 11 14 16 17 17 16 17 16 15 14 14 14 15 16 18 20 23 24 19 15 15 19 19 19 20 22 24 25 25 26 27 27 26 23 21 20 20 20 22 23 25 26 25 24 24 23 23 23 23 23 23 23 23 23 23 23 23 23 23 23 23 24 24 23 23 22 22 22 22 21 19 18 18
13 14 14 14 14 14 14 13 12 12 11 10 10 11 13 14 14 14 15 15 15 14 13 13 13 14 15 18 21 22 21 16 15 18 21 20 19 19 22 23 23 24 25 27 28 26 22 19 18 18 20 23 24 25 26 26 26 25 24 24 24 23 23 23 23 23 23 23 23 22 22 23 23 23 24 24 23 23 22 22 22 22 21 19 18 18
14 14 14 14 14 13 13 12 11 11 10 10 10 11 12 12 12 12 13 13 14 13 13 13 14 15 16 18 18 16 14 14 17 21 22 20 19 20 22 22 22 23 24 24 22 20 20 21 20 19 21 24 25 26 26 26 26 25 25 25 25 24 23 23 23 23 23 22 22 22 22 23 23 23 24 23 23 23 22 22 22 22 21 20 19 19
15 14 14 13 13 12 11 11 10 10 9 9 10 10 10 10 11 11 11 11 12 13 12 13 14 15 15 14 11 7 8 16 21 23 22 19 18 20 21 21 22 23 22 19 14 10 14 20 23 24 24 25 26 26 25 25 25 25 26 26 26 25 24 24 23 23 22 22 22 22 22 22 23 23 23 23 23 23 22 22 22 22 22 21 20 19
15 14 13 12 12 11 10 10 9 9 9 9 9 10 10 11 11 11 10 11 11 12 13 13 14 14 14 13 10 9 12 20 24 24 22 19 19 20 20 21 21 22 21 18 15 11 8 13 22 29 29 27 26 26 25 24 24 24 25 26 26 26 25 24 23 23 22 22 22 21 22 22 23 23 23 23 23 22 22 23 23 22 22 21 20 19
13 13 12 11 11 10 10 10 10 10 10 10 11 12 12 12 12 11 10 10 10 11 12 14 14 14 15 15 15 16 20 23 24 24 22 20 19 19 20 21 21 22 22 20 18 16 14 16 22 28 29 28 27 25 25 24 23 24 25 25 26 26 26 25 24 23 23 22 22 22 22 22 22 22 22 22 22 22 22 23 23 23 22 21 20 19
12 12 12 12 12 11 11 11 11 12 12 13 14 15 15 15 14 13 11 10 9 10 11 13 14 15 16 16 16 18 22 24 24 23 22 21 19 19 21 21 22 22 23 21 21 20 19 21 23 25 26 28 27 26 24 23 23 24 24 24 25 25 26 25 24 24 23 23 22 22 22 23 22 22 22 22 22 22 23 23 23 22 21 21 20 20
12 12 13 13 13 13 13 13 14 14 15 16 17 17 17 17 16 15 13 12 11 10 10 11 13 15 16 17 17 19 22 25 25 23 23 22 21 20 21 21 21 21 21 22 21 21 20 22 23 23 23 26 27 26 25 24 24 24 24 24 24 24 24 24 24 23 23 23 23 22 23 23 23 22 21 21 22 22 23 23 23 22 21 20 19 19
13 14 14 15 15 15 15 16 16 17 17 18 18 19 19 18 18 17 15 14 13 12 12 12 12 13 15 17 19 22 24 26 25 23 22 22 22 21 20 20 21 21 21 22 22 21 20 22 23 24 23 22 23 25 26 26 26 25 25 24 24 24 23 23 22 22 23 22 22 22 22 22 22 22 22 22 22 22 22 22 21 21 20 20 19 18
14 14 15 15 16 16 16 17 18 18 19 19 19 19 19 19 19 18 17 16 16 16 15 15 14 14 14 15 18 21 24 24 24 23 21 21 21 21 22 22 22 22 22 21 21 22 21 21 22 23 22 20 20 22 25 28 28 28 26 26 25 24 23 22 22 22 21 21 21 21 22 22 22 22 22 22 22 22 21 21 20 20 19 19 18 18
15 15 15 15 16 16 17 17 18 19 19 19 19 19 19 20 20 19 19 19 19 19 19 19 19 17 16 16 16 18 20 21 22 21 20 19 19 20 22 23 24 24 23 22 21 21 21 20 19 18 19 21 22 23 25 26 27 28 28 27 26 24 22 22 22 21 21 21 21 21 22 22 22 22 22 22 22 22 21 21 20 19 19 18 18 17
15 15 15 15 16 16 17 17 18 18 18 18 18 19 19 20 20 20 21 21 21 21 22 22 22 22 20 19 17 17 18 19 20 20 20 19 18 19 20 22 24 25 25 24 22 20 20 19 18 17 18 20 23 25 26 25 26 27 28 29 27 25 23 23 22 21 21 21 22 22 22 22 22 22 21 22 22 22 21 21 20 19 19 19 18 18
15 15 15 15 15 15 16 16 17 17 17 17 17 18 19 20 21 22 22 22 23 24 24 25 25 25 23 22 20 19 19 20 20 20 20 19 19 19 20 21 24 25 26 25 23 21 20 20 21 21 21 21 22 24 25 25 25 26 27 26 26 26 26 25 23 22 21 21 22 22 22 22 22 21 21 21 21 21 21 21 20 20 18 18 18 18
15 15 15 15 15 15 15 16 16 16 16 16 17 19 20 22 23 24 25 25 26 27 27 28 28 28 27 24 23 21 21 21 21 21 20 20 20 20 20 21 23 25 26 26 25 23 21 21 22 23 23 23 24 24 25 25 25 25 25 24 25 27 28 26 23 22 21 22 23 23 22 22 22 22 22 22 21 21 20 20 20 20 18 17 17 17
15 15 15 15 15 15 16 16 16 16 16 17 18 20 21 23 24 26 27 28 29 29 30 30 30 30 29 27 26 24 23 22 22 21 21 21 21 21 21 21 22 24 25 26 26 25 24 22 22 23 23 24 23 23 24 25 26 25 23 24 26 28 27 25 23 22 22 23 23 23 23 22 22 23 23 22 22 21 20 20 19 19 18 18 18 18
14 14 15 15 15 16 16 17 17 17 17 18 19 20 21 23 24 26 27 28 28 29 29 30 29 28 27 27 27 27 26 24 23 22 22 22 22 21 22 22 22 23 24 25 25 26 26 24 23 23 24 24 23 23 24 25 26 25 24 24 24 24 23 24 25 25 24 23 23 23 22 23 23 23 23 22 21 21 20 19 19 18 18 18 18 19
14 14 15 15 16 16 17 17 18 18 19 19 20 21 22 23 24 25 26 27 28 28 28 29 28 27 25 25 26 27 27 26 25 23 23 22 22 22 22 22 23 23 23 23 24 25 26 26 25 25 24 23 23 23 24 25 25 25 24 24 23 22 21 23 26 27 25 24 23 23 23 23 24 24 23 22 21 20 19 19 19 19 18 18 19 19
15 15 15 16 16 17 18 18 18 19 19 20 21 22 23 24 25 26 26 27 28 28 28 28 27 25 24 24 25 26 26 26 26 25 25 24 23 23 23 23 23 23 22 22 23 23 24 25 26 27 26 24 23 23 23 24 24 24 24 24 23 22 23 24 25 24 24 24 24 24 24 24 24 24 23 22 21 20 19 19 19 19 19 19 19 19
15 15 16 16 17 17 18 18 19 20 21 22 22 23 24 25 26 27 27 27 27 27 27 27 25 23 22 24 25 25 26 26 26 27 27 27 27 26 25 24 24 23 23 23 23 23 23 24 26 27 27 25 24 23 23 23 23 23 24 24 24 23 23 23 23 23 23 23 24 25 26 26 25 23 22 22 21 21 20 19 19 19 19 19 19 18
15 16 16 17 17 17 17 18 20 21 22 23 24 24 25 26 27 28 28 28 28 27 27 26 25 23 23 23 24 24 24 25 26 27 27 28 28 28 27 27 26 25 23 23 22 21 21 22 23 25 25 24 23 22 23 23 22 22 23 23 24 23 23 22 23 23 23 23 24 25 26 26 25 23 23 23 22 21 20 19 19 19 19 19 18 18
15 16 16 17 17 17 18 19 21 22 23 24 25 26 26 27 28 28 28 28 28 27 26 26 25 24 24 24 23 23 23 23 25 26 26 27 28 29 29 29 28 27 26 24 22 20 19 19 19 20 21 22 21 21 22 23 23 22 22 23 23 22 22 22 23 23 23 24 24 25 25 24 23 23 23 23 23 22 21 21 20 19 18 18 18 18
15 15 16 16 17 18 18 20 21 23 24 25 26 27 28 28 28 27 27 28 27 27 26 25 25 25 24 24 24 24 23 23 24 25 25 26 27 28 29 29 30 29 28 26 24 21 19 17 15 14 14 15 18 20 22 22 23 23 22 22 21 21 21 22 23 23 23 24 25 25 24 23 22 22 22 22 22 23 23 22 21 20 18 18 18 18
15 15 15 16 16 17 18 20 21 22 24 25 26 27 28 29 29 29 28 28 27 26 26 25 25 24 24 24 24 24 24 24 24 25 25 26 26 27 27 29 29 29 28 27 26 24 22 19 17 14 10 9 11 14 18 21 23 24 22 21 20 21 21 23 23 24 24 24 24 25 24 24 23 22 21 21 22 23 23 23 21 20 19 19 18 18
15 14 14 15 16 17 18 20 21 22 23 24 26 27 28 29 29 29 29 28 28 27 27 26 25 23 23 23 24 24 23 24 24 24 25 25 26 26 25 26 26 26 25 25 25 24 23 20 18 16 14 9 8 11 15 20 23 23 22 21 21 22 22 23 24 25 25 25 24 24 24 23 22 21 21 20 20 21 22 22 22 22 21 20 20 20
Wind_Direction
314 328 336 340 338 336 337 338 340 341 343 342 342 343 344 347 350 352 352 354 356 357 357 357 355 353 350 349 351 354 357 356 351 345 341 339 338 337 335 334 333 333 332 332 332 331 332 331 331 331 331 332 332 332 332 332 332 331 330 329 329 329 329 329 330 331 331 331 331 331 331 331 331 332 332 332 331 331 330 331 330 330 329 328 328 328
329 335 337 339 338 337 338 340 343 346 348 347 345 344 344 346 349 351 353 354 356 358 360 0 360 358 355 352 353 355 358 357 353 348 344 341 338 336 335 334 333 333 332 332 332 332 332 332 331 331 331 331 332 332 332 332 332 331 330 330 329 329 328 329 330 331 331 331 331 331 331 331 331 331 331 331 331 331 331 330 330 330 329 329 329 329
338 340 341 340 340 341 344 345 347 348 350 349 348 347 347 349 351 353 354 355 356 358 0 2 2 0 358 354 354 355 357 357 354 351 347 344 340 338 336 335 334 333 332 332 332 332 332 332 332 331 331 331 331 332 332 332 331 331 330 330 329 329 329 329 330 331 331 331 331 331 331 331 331 331 331 331 331 331 331 330 330 330 329 329 329 329
360 354 351 348 347 347 348 349 349 348 348 349 349 349 350 352 354 355 357 357 357 358 360 1 2 1 359 356 354 354 355 355 353 352 350 347 343 340 338 337 335 334 333 332 332 332 332 332 332 331 331 331 331 332 332 332 331 331 330 330 329 329 329 330 330 330 331 331 331 331 331 331 331 331 331 331 331 331 331 330 330 330 330 330 330 329
15 5 356 354 354 354 352 351 350 348 347 348 351 352 353 354 355 356 358 358 358 359 360 1 2 1 360 357 354 353 352 352 352 353 352 349 346 343 342 341 339 337 335 333 333 332 332 332 332 332 331 332 332 332 332 332 331 330 330 329 329 329 330 330 330 331 331 331 331 331 331 331 331 331 331 330 331 331 331 331 331 330 330 330 330 330
18 7 359 358 358 358 355 355 353 351 350 350 352 354 355 356 356 357 359 360 360 359 360 360 0 360 359 357 355 353 350 349 350 351 352 351 348 346 345 344 343 341 339 336 334 333 333 332 332 332 331 332 332 332 332 332 331 331 330 329 329 329 330 331 331 331 331 331 331 331 331 331 331 330 330 330 330 331 331 331 331 330 330 330 330 330
15 6 1 1 359 357 358 358 358 357 357 355 355 355 356 356 357 358 359 360 359 359 359 359 359 359 358 357 355 352 350 349 349 350 351 351 350 348 347 346 345 344 343 341 338 336 334 333 332 332 331 332 332 332 332 332 332 331 330 330 329 329 330 331 331 331 331 331 331 331 330 330 330 330 330 330 331 331 331 331 331 331 331 330 330 330
18 8 4 5 4 1 359 360 1 2 3 1 359 358 358 357 357 357 358 359 359 358 357 357 358 359 359 357 354 352 349 347 347 347 348 349 349 348 347 346 345 345 345 344 342 339 337 334 333 332 332 332 332 332 332 332 331 331 330 330 329 330 330 331 331 331 330 330 331 331 331 330 330 329 329 330 331 331 331 331 331 331 331 330 330 330
21 15 9 7 6 5 2 359 1 4 5 5 4 2 359 357 356 355 356 358 358 357 355 354 354 355 357 357 355 351 349 346 344 343 344 345 346 346 344 343 343 344 345 345 344 342 340 338 335 333 332 332 333 333 332 332 331 330 330 329 329 330 331 331 331 331 331 331 330 331 331 330 330 329 329 330 331 331 331 331 331 331 331 331 331 331
20 18 15 10 8 7 5 359 360 3 5 6 6 5 2 359 356 353 352 352 354 355 353 351 350 350 351 354 354 351 347 344 342 341 341 343 345 344 342 340 340 342 343 344 344 343 342 340 337 334 334 334 334 334 333 332 331 330 330 329 329 330 331 331 331 331 331 330 330 330 330 330 330 330 330 330 331 332 331 331 331 331 331 331 331 331
21 17 16 13 10 8 7 2 1 3 3 4 5 5 4 2 358 354 349 345 346 348 348 347 346 345 345 347 350 350 346 343 340 340 341 344 346 346 343 341 340 340 341 342 343 344 343 341 338 337 336 336 337 336 334 333 331 330 329 329 329 330 331 331 331 331 330 330 330 330 330 330 330 330 330 331 332 332 332 331 331 331 331 331 331 331
22 18 16 14 11 9 8 4 3 3 4 4 3 1 359 357 356 353 347 341 339 340 341 340 341 343 344 345 346 346 344 341 338 338 339 343 346 347 345 342 340 340 340 341 343 344 344 341 339 338 338 338 338 338 335 333 331 330 329 329 330 330 331 331 331 331 330 331 331 331 331 330 330 330 331 331 331 332 332 332 331 331 331 331 331 330
22 17 15 14 13 12 8 4 3 3 4 4 1 355 349 347 347 347 343 338 336 336 336 335 336 340 344 347 347 344 341 338 336 336 337 340 344 346 344 341 339 338 338 339 340 342 342 340 338 339 339 339 339 338 335 332 330 329 328 329 330 331 331 331 331 331 330 331 331 331 330 330 330 331 331 331 331 331 332 332 331 331 331 331 331 330
19 15 14 15 14 11 8 4 1 359 359 358 354 348 341 340 341 342 341 338 336 335 335 333 333 335 341 346 346 342 339 336 335 335 335 337 341 344 342 338 336 336 336 336 336 338 339 338 337 337 339 339 339 337 334 331 329 328 328 329 330 331 331 331 331 331 330 331 331 331 330 330 330 331 331 331 332 332 332 331 331 331 332 332 330 328
19 17 16 14 11 8 5 2 358 354 352 349 345 341 338 339 341 343 342 338 336 335 336 334 334 335 339 343 342 340 339 337 335 333 332 333 338 342 341 336 334 333 334 333 333 335 337 336 335 336 337 338 337 335 332 329 328 328 328 329 330 331 331 331 331 331 331 331 331 331 330 331 331 331 331 332 332 332 331 331 331 331 332 331 330 327
21 20 19 12 6 4 1 358 353 348 345 344 342 341 341 340 341 341 340 337 335 336 338 338 337 337 338 339 341 341 339 338 335 332 328 328 334 340 340 335 331 330 331 331 331 332 334 335 334 335 335 335 334 331 329 328 328 328 329 329 330 331 331 331 331 331 331 331 331 331 331 331 331 331 332 332 332 332 331 331 332 332 332 331 329 328
23 21 18 11 3 358 356 355 352 347 345 343 342 341 340 338 338 338 338 336 336 338 338 339 338 336 334 334 336 340 341 338 334 329 325 322 328 335 338 334 330 327 328 329 329 331 332 332 332 333 333 333 331 329 329 328 328 329 329 329 330 330 331 331 331 331 331 331 331 332 332 331 331 332 332 332 332 332 332 332 332 332 332 331 329 328
26 21 17 11 2 354 352 352 351 348 346 344 341 338 337 336 336 336 336 336 336 336 334 334 332 329 327 326 328 334 341 336 331 326 322 319 323 330 334 332 329 327 326 327 328 329 330 330 330 331 331 331 329 329 329 329 329 329 329 330 330 330 330 331 331 331 331 332 332 332 332 331 331 332 332 332 332 332 332 332 332 332 332 330 328 329
28 22 17 9 1 354 351 352 351 348 346 342 338 335 334 334 334 335 335 335 334 332 329 327 324 321 319 315 321 331 340 336 329 324 320 317 319 325 331 331 329 326 325 325 327 328 328 328 329 330 331 330 330 329 328 328 328 329 329 330 330 330 331 331 332 332 332 332 332 332 332 332 332 332 332 332 332 332 332 332 331 331 331 329 329 330
29 23 16 7 360 355 351 350 350 348 344 340 336 334 332 332 333 333 333 333 331 329 327 323 320 317 316 314 320 330 339 336 330 323 318 315 317 322 329 330 329 326 324 324 326 327 327 326 328 329 331 332 331 330 328 328 328 329 329 330 330 330 331 331 332 332 332 332 332 332 332 332 332 332 332 332 332 332 332 331 332 331 331 329 329 331
25 20 11 5 0 355 349 348 348 348 344 340 337 335 332 332 332 332 331 330 329 328 327 323 318 315 315 313 318 329 340 336 328 322 318 315 316 320 327 330 328 325 323 323 324 326 326 325 326 329 331 331 330 329 328 327 328 329 330 330 330 331 331 331 332 332 332 332 332 333 333 333 333 333 333 333 333 332 332 332 332 331 331 330 330 332
20 15 7 3 359 354 348 347 347 347 346 343 339 334 332 331 330 329 328 328 327 326 323 318 315 316 317 314 320 331 340 337 329 322 319 316 315 319 325 328 327 324 321 322 323 324 324 324 325 327 329 330 329 328 327 327 328 329 330 330 330 331 331 331 332 332 332 332 332 333 333 333 333 333 333 333 333 332 332 332 332 331 331 330 331 333
12 9 5 0 356 352 349 347 345 345 345 342 336 331 327 326 325 324 324 324 323 322 321 319 319 321 323 322 326 333 340 339 334 326 320 314 313 317 324 327 326 323 319 321 323 324 323 323 323 325 328 329 329 328 327 327 328 329 329 330 330 330 331 331 331 332 332 332 332 333 333 333 333 333 334 333 333 332 332 332 331 331 331 331 332 334
4 3 1 357 354 351 349 345 342 341 340 337 332 327 323 320 319 318 319 320 322 324 325 326 326 326 328 329 331 334 338 340 336 329 321 313 311 315 321 325 325 322 318 319 321 322 322 321 322 324 327 329 330 329 328 327 328 329 329 330 330 330 330 331 331 332 332 332 332 333 333 333 333 333 334 333 333 333 332 332 331 331 331 331 332 333
355 355 354 352 351 349 345 336 333 334 338 338 333 327 320 316 314 315 318 323 328 333 334 332 329 328 329 331 331 331 335 339 337 331 323 316 312 314 319 323 324 321 318 319 321 322 321 319 321 324 327 329 331 330 329 329 328 328 328 329 329 330 330 331 331 332 332 332 332 332 332 333 333 333 334 334 334 333 333 333 332 332 332 331 332 332
345 345 346 344 341 336 331 327 327 332 338 342 338 327 317 315 317 321 328 335 340 341 338 335 331 329 329 330 329 329 332 335 335 331 327 320 315 315 318 323 324 322 319 319 321 322 320 317 318 322 326 329 330 330 329 329 328 328 328 328 328 329 329 330 331 331 331 332 332 332 332 332 332 333 334 334 334 334 334 333 333 332 332 332 332 331
342 342 340 336 332 330 330 332 333 335 337 343 340 328 318 321 326 333 340 344 345 343 340 336 332 329 329 329 327 325 326 329 330 331 331 325 318 315 318 323 325 324 321 320 321 321 319 316 316 320 326 329 329 329 329 329 328 328 327 327 328 328 328 329 330 331 331 331 331 331 331 331 332 332 333 334 334 335 335 334 333 333 333 332 332 332
350 348 345 342 340 339 339 340 339 338 338 341 339 332 326 330 338 344 346 343 342 341 338 333 330 328 327 324 321 320 322 323 327 332 333 328 320 315 318 323 326 326 324 322 321 321 320 318 320 324 328 328 328 328 329 329 328 328 328 328 328 328 328 329 329 330 330 330 330 330 330 330 331 332 333 333 334 334 335 334 334 334 334 333 333 333
358 355 353 350 348 346 344 344 344 343 342 340 337 333 333 337 343 345 342 339 339 338 333 329 326 324 320 318 317 318 320 323 329 335 336 331 322 315 319 324 328 329 328 326 325 325 325 325 326 328 328 328 327 327 328 328 329 329 329 329 329 329 328 329 329 330 329 329 329 329 330 330 331 332 332 333 333 334 334 335 335 335 334 334 333 332
0 358 355 352 350 349 348 349 349 348 346 343 340 338 337 338 340 340 336 334 336 335 328 324 322 321 320 320 320 321 322 326 330 334 336 332 324 319 322 325 328 330 332 332 331 330 328 327 327 328 327 327 327 326 327 328 329 330 330 330 330 330 330 329 329 329 329 329 329 329 330 331 331 332 332 332 333 333 333 334 335 335 334 333 333 332
1 358 356 354 353 353 354 354 354 353 350 347 345 344 343 340 339 337 335 332 333 333 326 321 319 320 321 323 323 320 317 318 325 332 335 330 322 319 322 324 325 328 332 334 333 328 324 325 324 325 326 326 326 326 326 327 328 329 330 330 330 330 330 330 329 329 329 329 329 329 330 331 331 331 332 332 332 332 332 334 335 335 334 333 332 331
359 358 358 358 358 359 360 0 359 357 354 352 351 350 350 348 344 341 337 334 332 331 326 321 317 315 315 312 305 296 300 308 319 329 332 327 320 318 320 321 322 324 327 328 325 317 312 317 319 321 323 324 324 325 326 326 328 329 330 330 329 329 329 330 330 329 328 328 328 329 329 330 331 331 332 332 332 331 331 333 334 335 334 333 331 329
357 358 0 4 6 7 7 7 5 2 359 357 356 355 355 354 352 349 344 338 333 330 327 323 317 312 310 304 297 293 296 305 317 327 329 325 320 318 319 320 321 321 323 323 320 313 305 306 312 316 319 321 322 323 324 326 328 329 330 330 328 328 329 330 330 329 328 328 328 328 329 330 331 331 331 331 331 331 332 332 333 334 334 332 330 329
358 0 4 8 11 12 12 11 8 5 2 360 357 356 355 356 357 357 354 348 341 333 330 326 320 312 306 303 298 295 297 307 319 328 327 323 319 316 318 319 320 321 323 323 322 318 312 309 311 315 317 318 320 321 323 326 327 328 329 328 328 327 328 329 329 328 327 327 327 328 329 330 331 331 331 331 331 331 331 331 332 333 333 332 330 329
4 6 8 11 12 12 12 10 7 4 2 359 357 356 356 357 359 0 0 357 351 343 335 329 324 316 307 301 297 296 299 310 321 328 326 321 317 314 315 316 318 320 321 321 322 321 318 315 314 315 316 317 318 320 322 325 326 327 327 327 327 326 326 327 327 326 326 326 326 328 329 330 330 330 329 329 330 330 330 330 330 331 331 331 330 329
9 12 12 12 11 11 10 8 5 2 359 358 357 355 355 357 360 2 2 360 356 351 344 338 331 324 315 305 298 295 300 311 320 326 326 323 318 314 312 312 314 317 318 319 319 319 317 315 315 315 315 316 317 319 321 324 325 326 327 327 327 326 325 325 325 325 325 325 326 327 328 329 329 328 327 327 328 328 328 329 329 329 329 329 329 329
14 15 14 12 11 9 7 5 3 360 357 355 355 355 356 357 359 1 1 360 357 353 349 346 341 335 327 317 308 305 307 314 320 325 327 326 322 316 310 308 310 313 315 315 315 316 315 314 314 315 315 314 314 315 318 321 324 325 325 326 326 325 324 325 325 325 324 324 325 325 327 328 327 326 325 325 326 327 327 328 329 329 329 329 328 327
16 16 15 12 10 7 4 2 0 358 355 354 354 354 356 357 359 0 0 359 358 355 351 348 345 342 338 331 323 319 318 321 324 327 329 327 323 318 312 310 311 312 312 311 310 310 311 311 312 313 313 312 311 311 314 318 320 322 322 323 324 324 324 325 326 325 324 324 324 324 325 325 325 324 324 325 325 326 326 326 326 326 327 328 327 326
17 15 14 11 8 5 2 360 358 355 354 353 354 355 356 358 359 359 359 358 357 355 352 349 346 344 343 340 337 334 331 331 331 332 331 329 326 322 317 313 312 313 313 311 309 306 305 304 304 305 306 308 309 310 312 314 316 318 320 322 323 324 325 326 326 325 324 324 324 324 324 324 324 324 324 325 325 325 324 324 324 324 324 324 324 324
15 14 12 9 6 3 0 358 355 354 353 354 356 357 358 358 358 358 358 358 357 355 353 350 347 345 345 345 345 343 341 339 338 336 335 332 330 326 322 318 316 315 315 313 310 305 301 299 298 297 299 301 303 306 309 311 313 315 319 321 322 322 323 324 324 324 324 325 325 324 323 323 324 324 323 323 323 322 321 320 320 320 321 321 321 321
13 11 8 5 3 1 359 357 355 355 356 358 0 2 2 0 359 357 356 357 356 355 354 351 348 346 346 347 349 349 347 344 342 341 338 336 333 330 326 322 319 318 316 314 311 306 301 298 297 296 296 297 299 301 303 305 308 312 315 316 315 316 318 320 322 323 324 325 324 323 323 323 323 323 322 322 320 318 317 316 316 317 318 318 317 316
11 8 4 2 0 359 358 358 358 360 2 4 6 7 5 2 360 358 356 354 353 352 351 349 346 343 342 344 347 349 349 347 345 343 341 338 335 331 328 325 323 321 318 315 312 308 304 300 297 295 295 296 298 300 301 302 305 308 310 311 313 315 317 318 321 324 325 324 324 324 323 323 322 321 321 319 317 316 315 314 314 314 314 314 313 312
8 5 2 360 358 358 358 359 1 4 6 8 10 9 6 3 1 358 355 352 349 348 348 347 344 341 338 338 341 344 346 347 346 344 341 338 336 333 330 327 325 323 320 315 312 310 308 305 300 296 295 296 296 296 297 299 302 305 307 310 313 316 318 319 320 322 323 323 322 323 323 322 321 319 318 317 315 314 314 313 313 313 312 312 311 310
5 2 360 358 358 359 359 1 3 6 8 9 9 8 6 3 1 358 355 351 348 346 346 345 343 341 338 337 337 339 340 343 344 343 341 339 337 334 331 329 327 325 322 316 311 308 309 307 304 301 299 297 295 293 294 296 299 302 306 310 313 313 312 313 316 319 321 321 321 322 322 321 320 318 317 316 315 315 314 313 313 312 312 312 311 309
4 0 358 359 359 0 2 3 4 6 8 8 8 7 5 2 0 358 355 350 347 345 345 344 343 341 339 337 337 337 336 338 339 340 340 339 338 336 334 332 330 328 324 318 312 307 303 301 300 301 302 299 295 291 291 293 297 301 306 311 313 312 310 311 314 317 319 320 320 321 321 321 320 319 317 317 316 316 315 314 313 312 312 312 311 309
1 358 358 360 1 3 4 3 4 5 6 7 6 5 4 2 360 358 355 351 347 345 344 344 343 340 337 335 335 336 336 336 336 337 338 338 339 339 338 336 333 329 325 320 315 309 303 298 296 297 299 299 296 292 290 292 296 301 307 312 314 314 314 315 316 318 319 319 320 320 321 322 321 319 317 316 316 315 314 313 313 312 311 311 311 309
360 358 359 0 3 4 4 4 5 6 6 5 4 3 3 1 359 356 354 351 348 345 344 344 343 340 336 334 334 334 334 333 333 334 335 337 338 339 339 337 335 332 327 323 319 314 309 305 301 298 294 294 293 294 295 298 301 304 309 314 316 316 316 316 318 319 320 319 319 320 322 322 322 320 318 317 316 315 314 314 313 312 311 311 310 309
360 359 0 2 4 5 5 6 7 7 5 3 2 1 1 0 358 354 351 350 349 347 344 343 341 339 336 335 335 334 333 331 331 332 333 335 337 338 338 338 336 335 333 330 326 321 317 313 309 302 295 290 288 290 296 303 308 311 314 316 317 316 315 315 317 319 320 319 319 319 320 320 320 318 317 317 316 315 315 315 314 313 312 312 311 310
2 2 3 4 6 6 7 8 8 7 4 1 359 358 358 358 357 353 350 349 348 347 345 342 340 337 335 334 334 334 334 332 332 333 334 336 337 338 338 338 338 337 336 336 335 332 329 325 320 313 302 295 290 291 298 307 314 317 319 319 319 318 316 316 317 318 318 317 318 318 318 318 317 316 315 315 314 314 314 314 314 313 313 313 312 311
4 5 6 7 8 9 9 9 9 6 3 360 357 355 354 354 354 354 352 350 349 347 345 343 340 337 334 333 333 334 334 333 333 334 335 337 338 339 339 339 339 339 338 339 340 340 339 337 335 333 326 314 307 307 312 317 320 322 322 322 322 321 319 318 317 318 318 317 317 317 316 316 316 316 315 314 313 313 313 314 314 314 314 314 314 312
6 7 8 9 10 10 10 10 9 6 2 358 355 353 351 351 351 351 351 350 348 347 345 343 341 338 334 332 332 333 333 333 334 334 335 337 338 339 339 340 341 341 341 341 341 341 342 340 340 340 341 339 334 328 324 323 323 324 324 324 325 324 322 319 318 318 318 317 317 316 316 315 316 316 316 314 313 313 313 314 314 314 314 315 315 314
Height
828 828 827 827 826 825 825 824 823 822 821 820 819 818 817 816 815 814 813 811 810 809 807 806 804 803 802 801 799 799 797 796 796 795 794 792 791 790 789 788 786 785 784 782 781 779 778 776 775 773 772 770 769 767 766 764 763 761 760 759 758 757 755 754 753 751 749 748 747 745 744 742 741 739 738 736 735 733 732 730 729 727 726 724 722 721
828 828 827 827 826 825 825 824 823 822 821 819 819 818 817 815 814 813 812 811 809 808 806 805 804 802 801 800 799 798 797 796 795 794 793 792 790 789 788 787 785 784 783 781 780 779 777 775 774 773 771 769 768 767 765 764 762 761 759 758 757 756 754 753 752 750 749 747 746 744 743 741 740 739 737 735 734 732 731 729 728 726 725 723 722 720
828 828 827 827 826 825 824 824 823 822 821 819 819 817 816 815 814 812 811 810 809 807 806 804 803 802 800 799 798 797 796 795 794 793 792 791 789 789 787 786 785 784 782 781 779 778 776 775 773 772 770 769 767 766 764 763 761 760 759 758 756 755 754 753 751 749 748 747 745 744 742 741 739 738 736 735 733 732 730 729 727 726 724 723 721 719
828 827 827 826 826 825 824 824 823 822 821 819 818 817 815 814 813 812 810 809 808 806 805 804 802 801 800 799 798 796 796 795 794 793 791 790 789 788 786 785 784 783 781 780 779 777 775 774 772 771 769 768 767 765 764 762 761 759 758 757 756 754 753 752 750 749 747 746 744 743 742 740 739 737 736 734 733 731 729 728 727 725 724 722 720 719
828 827 827 826 826 825 824 824 822 821 820 819 818 816 815 814 812 811 810 809 807 805 804 803 802 801 799 798 797 796 795 794 793 792 791 789 788 787 785 784 783 782 780 779 778 776 774 773 771 770 769 767 766 764 763 761 760 759 757 756 755 754 753 751 750 748 747 745 744 743 741 739 738 736 735 734 732 730 729 727 726 724 723 721 720 718
828 828 827 826 826 825 824 824 822 821 819 818 817 816 814 813 812 811 809 808 806 805 804 802 801 800 799 798 797 795 794 793 792 791 790 789 787 786 785 784 782 781 779 778 777 775 774 772 771 769 768 766 765 763 762 760 759 758 757 755 754 753 752 750 749 748 746 745 743 742 740 739 737 736 734 733 731 730 728 727 725 724 722 721 719 718
828 828 827 827 826 825 825 824 823 821 819 818 816 815 814 813 812 810 809 808 806 804 803 802 801 800 799 798 796 795 794 792 791 790 789 788 786 785 784 783 781 780 779 777 776 774 773 771 770 769 767 765 764 763 761 759 758 757 756 755 754 752 751 749 748 747 745 744 743 741 739 738 737 735 734 732 730 729 728 726 725 723 722 720 719 717
829 828 827 827 826 825 824 824 823 821 820 818 816 815 813 812 811 809 809 808 806 804 803 801 800 799 798 797 796 794 793 791 790 789 788 787 785 784 783 781 780 779 778 776 775 774 772 770 769 768 766 765 763 762 760 759 758 756 755 754 753 752 750 749 748 746 744 743 742 740 739 737 736 734 733 731 730 728 727 725 724 723 721 720 718 717
829 828 828 827 826 825 824 824 823 822 820 819 818 816 814 812 810 809 807 806 805 804 803 801 799 798 797 796 795 794 792 791 790 789 787 786 784 783 782 780 779 778 777 775 774 773 771 769 768 767 765 764 762 761 759 758 757 756 754 754 752 751 749 748 747 745 744 742 741 739 738 737 735 734 732 731 729 728 726 725 724 722 720 719 718 716
829 829 828 827 827 826 825 824 823 822 821 820 819 818 816 814 812 809 807 806 805 804 804 802 801 799 797 795 794 794 792 791 790 789 788 786 784 783 781 780 779 777 776 774 773 772 770 769 767 766 764 763 761 759 758 757 756 755 754 753 751 750 749 747 746 744 743 742 740 739 737 736 734 733 731 730 728 727 725 724 723 721 720 719 717 716
829 829 828 828 827 826 825 824 823 822 821 820 819 818 817 816 814 812 810 808 806 804 804 803 802 801 798 795 794 793 792 790 788 787 786 785 784 782 781 779 778 776 775 774 772 771 769 768 766 765 764 762 760 759 757 756 755 754 753 752 750 749 748 746 745 744 742 741 739 738 736 735 734 732 730 729 728 726 725 724 722 721 719 718 716 715
829 829 829 828 827 826 825 824 823 822 821 819 818 817 816 816 816 815 814 812 809 806 805 803 803 802 800 798 795 793 791 789 787 785 784 783 782 781 779 778 776 775 774 772 771 769 768 767 765 764 762 761 759 758 756 755 754 754 752 751 750 748 747 745 744 743 741 740 739 737 735 734 733 731 730 728 727 725 724 723 721 720 719 717 716 714
830 830 829 828 827 826 825 824 823 821 820 819 819 819 818 817 816 816 815 814 812 810 807 805 803 801 800 799 797 795 792 790 788 785 784 782 781 780 778 776 774 773 772 770 769 768 767 765 764 763 761 760 758 757 756 755 754 753 752 750 749 748 746 745 743 742 740 739 738 736 735 733 732 730 729 728 726 725 723 722 721 719 718 717 715 714
830 829 829 828 827 826 825 824 823 823 822 821 821 821 820 818 817 816 815 813 812 810 809 807 804 801 799 799 798 796 794 791 788 785 784 782 781 780 778 776 774 773 771 769 768 767 766 764 763 761 760 759 757 756 755 754 753 752 751 749 748 747 745 744 743 741 739 738 737 735 734 732 731 729 728 727 725 724 723 721 720 719 717 716 714 713
830 829 828 828 827 827 826 825 824 824 823 823 822 821 820 819 817 816 815 813 811 809 808 806 804 802 800 799 798 796 794 792 789 786 783 781 781 780 779 776 774 772 771 769 767 766 765 764 762 760 759 757 756 755 755 754 753 751 750 749 747 746 744 743 742 740 739 737 736 734 733 732 730 729 727 726 724 723 722 720 719 718 717 715 714 712
830 829 829 829 828 828 827 826 825 825 824 823 822 821 820 819 818 817 816 814 812 810 808 806 803 800 799 799 799 797 795 792 790 787 784 781 779 779 779 776 774 771 770 769 767 765 764 763 761 760 758 757 756 755 754 753 752 751 749 748 747 745 744 742 741 739 738 737 735 734 732 731 729 728 727 725 724 722 721 720 718 717 716 714 713 711
830 830 829 829 829 828 827 827 826 825 824 823 822 822 821 820 819 818 816 815 813 811 810 809 806 803 799 797 797 797 795 793 791 788 785 782 779 779 778 777 774 771 769 768 767 765 763 762 760 759 757 756 755 755 754 753 751 750 749 747 746 744 743 741 740 739 737 736 734 733 731 730 729 727 726 724 723 722 720 719 718 716 715 714 712 711
830 830 830 829 829 828 828 827 826 825 824 823 822 821 821 820 819 818 817 816 814 813 811 810 809 807 804 800 797 796 796 794 791 789 786 782 779 778 778 776 774 772 769 767 766 764 763 762 760 759 757 756 755 754 753 752 750 749 748 746 745 744 742 741 739 738 736 735 734 732 731 729 728 726 725 724 722 721 719 718 717 715 714 713 711 710
831 830 830 829 829 829 828 827 826 825 824 824 823 821 820 819 819 818 817 816 815 814 812 810 809 807 806 803 799 797 796 795 793 789 786 782 779 777 777 776 774 771 769 767 765 764 762 761 759 758 757 755 754 753 752 751 750 749 747 746 744 743 741 740 739 737 735 734 733 731 730 728 727 725 724 723 721 720 719 717 716 715 714 712 711 709
831 830 830 829 829 828 828 827 827 826 825 824 823 822 821 819 818 817 816 815 814 814 812 811 809 807 805 802 799 797 796 794 793 790 787 783 779 777 776 775 773 771 768 766 764 763 762 760 758 757 755 754 754 753 752 750 749 748 746 745 744 742 741 739 738 736 735 733 732 730 729 728 726 725 723 722 720 719 718 717 715 714 713 711 710 709
830 830 830 829 829 828 828 827 827 826 825 824 823 822 821 819 818 817 816 815 814 812 811 810 808 806 804 802 799 797 796 794 793 791 788 784 780 777 776 775 773 770 767 765 764 763 761 759 757 756 754 754 753 752 751 750 748 747 746 744 743 741 740 739 737 735 734 733 731 729 728 727 725 724 722 721 720 718 717 716 714 713 712 710 709 708
830 830 830 829 829 828 828 827 826 826 825 824 823 822 821 820 819 817 816 814 813 812 811 809 807 805 803 801 799 797 796 795 794 792 789 784 779 776 776 775 773 770 767 764 763 761 760 758 756 755 754 753 752 751 750 749 748 746 745 744 742 740 739 738 736 734 733 732 730 729 727 726 724 723 722 720 719 718 716 715 714 712 711 710 709 707
830 830 829 829 829 828 827 827 826 825 825 824 824 823 821 820 819 818 816 815 814 812 810 808 806 804 802 800 799 797 796 795 794 793 790 786 780 776 775 774 773 770 767 764 762 760 758 757 755 754 753 752 751 750 749 748 747 745 744 743 741 740 738 737 735 734 732 731 729 728 726 725 724 722 721 719 718 717 715 714 713 711 710 709 708 706
830 829 829 829 828 828 827 826 826 825 825 824 823 822 821 820 819 818 816 815 814 812 809 807 804 802 800 799 798 797 796 795 794 792 790 787 782 777 775 774 772 769 766 764 762 760 758 756 754 753 752 751 750 749 748 747 746 744 743 742 740 739 737 736 734 733 731 730 728 727 725 724 723 721 720 718 717 716 714 713 712 710 709 708 707 705
830 829 829 829 828 828 827 827 826 825 824 824 823 822 820 819 818 817 816 814 813 811 809 806 804 802 799 798 797 796 795 794 793 792 790 787 782 778 776 774 773 769 766 763 762 760 758 755 753 752 751 750 749 749 747 746 745 744 742 741 739 738 736 735 734 732 730 729 728 726 724 723 722 720 719 718 716 715 714 712 711 709 708 707 705 704
830 829 829 829 828 828 827 826 825 825 824 824 823 822 819 818 817 816 814 813 811 810 808 806 804 802 800 798 797 795 794 793 793 792 790 788 783 778 775 774 773 770 766 763 761 759 757 754 752 751 750 749 749 748 746 745 744 743 741 739 738 737 735 734 733 731 729 728 727 725 724 722 721 719 718 717 715 714 713 711 710 709 707 706 704 704
830 830 829 829 828 827 826 825 824 824 824 823 823 822 819 817 816 814 813 812 811 810 809 807 805 802 800 798 797 795 794 793 792 791 790 788 784 779 775 774 772 770 766 762 760 759 757 754 752 750 749 748 747 746 745 744 743 741 740 739 737 735 734 733 731 730 729 727 726 724 723 721 720 719 717 716 714 713 712 710 709 708 706 705 704 703
830 829 828 827 827 826 825 824 824 823 822 822 821 820 819 817 815 814 813 812 812 811 810 809 807 804 802 799 797 795 793 792 792 790 789 787 784 780 776 774 772 770 767 763 759 757 756 754 752 750 749 748 746 745 744 743 741 740 739 737 736 734 733 732 730 729 728 726 725 723 722 720 719 718 716 715 714 712 711 709 708 707 705 704 703 702
829 829 828 827 826 825 824 824 823 822 822 821 820 819 818 817 816 815 814 813 812 811 810 809 808 806 804 801 798 795 793 792 791 790 788 786 784 780 777 775 774 771 768 763 758 754 754 753 751 750 748 747 745 744 742 741 740 738 737 736 735 734 732 731 729 728 727 725 724 722 721 719 718 717 715 714 713 711 710 709 707 706 704 703 702 701
829 828 827 826 825 824 824 823 822 822 821 820 820 819 818 817 816 815 814 813 812 811 810 809 808 807 805 802 798 794 792 791 790 789 788 786 783 780 777 776 774 773 770 766 760 754 750 749 749 749 748 746 744 743 741 740 739 737 736 734 733 732 731 730 729 727 726 724 723 722 720 719 718 716 714 713 712 711 709 708 707 705 704 703 701 700
828 827 826 826 825 824 824 823 822 822 821 820 820 819 818 817 816 815 814 813 812 811 810 809 808 807 805 804 801 797 792 790 789 789 789 787 784 781 779 777 775 774 773 771 767 761 753 747 745 746 746 745 744 742 741 739 738 737 735 734 732 731 730 729 727 726 724 723 722 721 719 718 717 715 714 713 711 710 709 708 706 705 703 702 701 700
828 827 826 826 825 824 824 823 822 821 821 820 819 819 818 817 816 814 814 813 812 811 810 809 808 807 806 805 804 800 794 790 789 789 789 787 784 782 780 779 776 774 773 773 773 769 763 754 747 744 744 744 743 741 740 739 738 737 735 733 731 730 729 728 726 725 723 722 721 720 719 717 716 714 713 712 711 709 708 707 706 704 703 702 700 699
828 827 827 826 825 824 824 823 822 821 821 820 819 818 817 816 815 814 813 812 811 810 809 808 807 806 805 804 802 799 795 791 789 789 789 788 785 782 780 779 777 774 773 772 772 770 768 761 754 748 744 743 742 741 740 739 738 736 735 733 731 729 728 726 725 724 722 721 719 719 717 716 715 714 712 711 710 709 708 706 705 704 703 701 700 699
828 827 827 826 825 824 823 823 822 821 820 819 818 817 816 815 814 813 812 811 811 810 809 808 807 805 804 803 800 797 793 791 790 789 789 788 786 784 781 779 777 774 772 770 769 768 765 762 758 753 748 743 741 740 739 738 737 736 734 733 731 729 727 726 724 723 721 720 719 717 716 715 714 713 711 710 709 708 707 706 705 704 703 701 700 699
828 827 826 825 824 824 823 822 821 820 819 818 817 816 815 814 813 812 811 811 810 809 808 807 806 805 804 802 799 796 792 790 789 789 789 788 787 784 782 779 778 776 773 771 769 767 764 761 758 755 751 745 741 739 738 738 736 735 734 732 731 729 727 726 724 722 720 719 718 716 715 714 712 711 710 709 708 707 706 705 704 703 702 701 700 699
828 827 826 825 824 823 822 821 820 819 819 818 817 815 814 814 812 811 811 810 809 808 807 806 805 804 803 801 799 796 792 789 789 789 788 788 787 785 783 780 778 776 774 772 769 767 764 761 758 755 753 748 743 738 736 735 734 734 732 731 730 728 727 725 724 722 720 718 717 715 714 713 712 710 709 708 707 706 705 704 703 702 701 700 699 698
827 826 825 825 824 823 822 821 820 819 818 817 816 815 814 813 812 811 810 809 808 807 806 805 804 803 802 800 798 795 793 790 789 788 788 787 787 785 783 780 778 777 775 773 770 768 765 761 757 754 752 749 745 741 737 734 732 731 730 729 729 727 726 724 723 722 720 718 717 715 714 713 711 710 708 707 706 705 704 703 702 701 700 699 698 697
827 826 825 825 824 823 822 821 820 819 818 817 815 814 813 812 811 810 809 808 807 806 804 803 802 801 800 799 797 795 793 791 789 788 787 787 786 785 783 780 778 776 775 774 772 769 766 763 759 754 751 748 745 743 740 737 734 731 729 728 727 726 725 724 722 721 719 718 716 715 714 712 711 709 708 706 705 704 702 701 700 699 699 698 697 696
827 826 825 825 824 823 822 821 820 819 818 817 816 814 813 812 811 810 809 807 806 805 804 802 800 799 798 797 796 794 793 791 789 788 787 786 785 784 783 780 777 775 773 772 771 769 767 764 761 757 753 749 744 741 739 738 735 733 729 726 724 724 723 723 721 720 719 717 715 714 713 711 710 709 707 706 704 703 701 700 699 698 697 696 695 694
827 827 826 825 824 824 823 822 820 819 818 817 816 814 813 811 810 809 808 807 805 804 803 801 799 798 797 796 795 794 792 790 789 788 786 785 784 783 781 779 777 774 772 770 769 768 766 763 760 757 754 751 747 743 739 737 735 734 731 728 724 722 721 721 720 719 718 717 715 714 712 710 709 708 707 705 704 703 701 699 698 697 696 695 694 693
828 827 826 825 824 824 823 822 821 819 818 817 815 814 812 810 809 807 806 805 804 802 801 799 798 796 795 794 794 793 791 789 788 787 785 784 783 781 780 778 776 773 771 769 767 765 764 762 759 756 753 750 747 744 740 738 736 734 733 730 726 723 721 720 719 719 717 716 715 714 712 710 709 707 706 705 704 702 701 700 698 697 696 695 694 693
828 827 826 825 825 824 823 822 821 819 818 816 815 813 812 810 809 807 805 803 802 800 799 797 795 794 792 791 791 791 790 789 787 785 784 783 781 780 778 776 775 773 770 768 765 763 761 760 757 754 752 749 747 744 740 736 735 734 733 730 727 723 720 718 718 718 717 715 714 713 711 710 708 707 705 704 703 701 700 699 698 697 696 694 693 692
828 827 827 826 825 824 823 822 820 819 818 816 814 813 812 810 809 807 805 804 802 800 799 797 796 794 792 790 789 789 788 787 786 784 783 781 779 778 777 775 774 772 770 767 764 761 758 757 755 753 750 748 746 744 740 736 733 732 731 730 728 725 721 717 716 716 716 715 714 712 711 709 708 706 704 703 702 700 699 698 697 696 695 694 693 692
828 828 827 826 825 824 823 821 820 819 817 815 814 813 812 810 809 807 806 804 802 801 799 798 796 794 793 791 789 787 786 785 784 783 781 780 779 777 775 774 772 770 769 767 764 760 756 754 752 749 748 746 745 742 739 736 733 731 730 729 728 727 724 720 718 716 715 714 713 711 710 709 707 705 703 702 700 699 698 697 696 695 694 693 692 691
828 828 827 826 825 824 822 821 819 818 817 815 814 813 811 810 809 807 806 804 803 801 799 798 796 794 793 791 789 787 785 783 782 780 779 778 777 776 774 772 770 769 767 765 763 760 757 753 749 746 745 744 743 740 738 735 732 730 729 728 727 726 724 721 719 717 715 713 712 710 709 708 706 704 702 700 699 698 697 695 694 693 692 691 691 689
828 827 826 825 824 823 822 821 819 818 816 815 814 813 811 810 809 807 806 805 803 801 800 799 798 796 794 792 789 787 784 782 780 778 777 775 774 773 772 770 769 767 765 763 761 759 756 753 749 746 743 741 739 738 736 734 733 730 728 727 726 724 722 721 719 718 716 714 711 709 708 706 705 703 701 699 697 696 695 694 693 692 691 690 689 688
828 827 826 825 824 823 822 820 819 817 816 814 813 812 811 810 808 807 806 805 803 802 800 799 797 796 795 793 790 788 785 783 780 778 776 774 772 771 769 768 766 765 763 761 758 756 754 751 749 746 743 741 738 735 733 733 732 731 729 727 725 724 722 720 719 717 715 714 711 709 707 705 703 701 699 697 696 694 693 693 692 691 690 689 688 687
828 827 826 825 824 823 822 820 819 817 815 814 813 812 811 810 809 807 806 804 803 802 800 799 797 795 794 792 791 789 787 784 781 779 776 774 772 769 768 766 764 762 760 758 756 754 752 749 747 745 743 741 738 735 732 731 731 731 729 727 725 723 721 719 718 716 714 713 711 709 707 705 703 701 698 696 694 693 691 691 690 689 688 687 686 685
828 827 826 825 824 823 821 820 819 817 815 814 813 811 810 810 809 808 807 805 804 802 801 799 798 796 794 791 790 788 786 784 782 779 777 775 772 770 767 764 762 759 757 754 753 751 749 747 746 744 742 740 738 735 733 731 731 730 729 727 725 723 721 719 717 715 714 712 709 708 706 705 703 701 699 696 694 692 690 689 688 687 686 686 685 684
828 827 827 825 824 823 822 820 819 817 816 814 813 812 810 809 809 808 807 806 804 803 802 800 798 796 794 791 789 788 786 784 782 779 777 775 773 771 768 765 762 759 755 752 750 748 746 744 743 742 741 740 739 737 734 732 730 729 728 727 725 723 721 718 716 714 712 710 708 706 705 704 702 700 699 697 694 691 689 687 686 685 685 684 684 683
828 827 827 826 824 823 822 821 819 818 817 815 814 812 811 809 808 807 806 805 804 803 801 800 799 797 794 792 789 788 786 784 782 780 778 776 774 772 769 767 764 761 757 754 750 747 744 742 740 739 739 739 739 738 736 734 731 728 727 725 724 723 720 718 715 713 711 709 707 705 704 702 700 699 698 696 694 691 688 686 684 683 683 682 682 681